Almeria, Spain

4:20 AM CEST on July 23, 2017 (GMT +0200)
Almeria

Weather History for LEAM - November, 2013

Change the Weather History Date:

Saturday, November 23, 2013

  Actual Average Record
Temperature  
Mean Temperature 58 °F -  
Max Temperature 65 °F 61 °F 78 °F (2014)
Min Temperature 50 °F 49 °F 42 °F (1999)
Degree Days  
Heating Degree Days 8    
Growing Degree Days 8 (Base 50)    
Moisture  
Dew Point 38 °F    
Average Humidity 44    
Maximum Humidity 77    
Minimum Humidity 14    
Precipitation  
Precipitation 0.00 in 0.03 in - ()
Sea Level Pressure  
Sea Level Pressure 29.87 in    
Wind  
Wind Speed 9 mph ()    
Max Wind Speed 20 mph    
Max Gust Speed -    
Visibility 6.2 miles    
Events      
Averages and records for this station are not official NWS values.
T = Trace of Precipitation, MM = Missing Value Source: Averaged Metar Reports

Daily Weather History Graph

Daily Weather History Graph

Search for Another Location

Airport or City:

Trip Planner

Search our weather history database for the weather conditions in past years. The results will help you decide how hot, cold, wet, or windy it might be!

Date:

Astronomy

Nov. 23, 2013 Rise Set
Actual Time 7:55 AM CET 5:55 PM CET
Civil Twilight 7:27 AM CET 6:23 PM CET
Nautical Twilight 6:56 AM CET 6:55 PM CET
Astronomical Twilight 6:25 AM CET 7:26 PM CET
Moon 11:07 PM CET 12:07 PM CET
Length of Visible Light 10h 55m
Length of Day
9h 59m
Waning Gibbous, 72% of the Moon is Illuminated
Nov 23
Waning Gibbous
Nov 25
Last Quarter
Dec 3
New
Dec 9
First Quarter
Dec 17
Full

Hourly Weather History & Observations

Time (CET) Temp. Dew Point Humidity Pressure Visibility Wind Dir Wind Speed Gust Speed Precip Events Conditions
12:00 AM 56 °F 42 °F 50% 29.84 in - NE 3.5 mph - -  
1:00 AM 53 °F 42 °F 56% 29.84 in - NW 3.5 mph - -  
2:00 AM 53 °F 39 °F 49% 29.82 in - NNE 6.9 mph - -  
3:00 AM 52 °F 38 °F 47% 29.82 in - NNE 5.8 mph - -  
5:00 AM 57 °F 32 °F 27% 29.82 in - NW 9.2 mph - -  
5:00 AM 57.2 °F 30.2 °F 36% 29.80 in 6.2 mi NW 9.2 mph - N/A   Mostly Cloudy
5:30 AM 55.4 °F 30.2 °F 38% 29.83 in 6.2 mi NNW 4.6 mph - N/A   Mostly Cloudy
6:00 AM 57 °F 31 °F 25% 29.83 in - NW 10.4 mph - -  
6:00 AM 57.2 °F 30.2 °F 36% 29.83 in 6.2 mi NW 8.1 mph - N/A   Mostly Cloudy
6:30 AM 55.4 °F 30.2 °F 38% 29.83 in 6.2 mi NW 13.8 mph - N/A   Mostly Cloudy
7:00 AM 56 °F 31 °F 26% 29.85 in 28 mi NW 16.1 mph - -   Mostly Cloudy
7:00 AM 55.4 °F 28.4 °F 36% 29.83 in 6.2 mi NW 15.0 mph - N/A   Mostly Cloudy
7:30 AM 57.2 °F 28.4 °F 33% 29.86 in 6.2 mi NW 16.1 mph - N/A   Mostly Cloudy
8:00 AM 56 °F 29 °F 23% 29.87 in - NW 18.4 mph - -  
8:00 AM 55.4 °F 28.4 °F 36% 29.86 in 6.2 mi NW 18.4 mph - N/A   Scattered Clouds
8:30 AM 55.4 °F 26.6 °F 33% 29.86 in 6.2 mi NW 16.1 mph - N/A   Scattered Clouds
9:00 AM 57 °F 26 °F 19% 29.89 in - NW 17.3 mph - -  
9:00 AM 57.2 °F 24.8 °F 29% 29.89 in 6.2 mi NW 16.1 mph - N/A   Partly Cloudy
9:30 AM 57.2 °F 24.8 °F 29% 29.89 in 6.2 mi NW 18.4 mph - N/A   Partly Cloudy
10:00 AM 59.0 °F 23.0 °F 25% 29.89 in 6.2 mi NW 19.6 mph - N/A   Partly Cloudy
10:30 AM 60.8 °F 21.2 °F 22% 29.89 in 6.2 mi NW 16.1 mph - N/A   Partly Cloudy
11:00 AM 63 °F 26 °F 14% 29.92 in - NW 12.7 mph - -  
11:00 AM 62.6 °F 23.0 °F 22% 29.92 in 6.2 mi NW 12.7 mph - N/A   Partly Cloudy
11:30 AM 62.6 °F 23.0 °F 22% 29.92 in 6.2 mi NW 11.5 mph - N/A   Partly Cloudy
12:00 PM 65 °F 35 °F 22% 29.91 in - West 8.1 mph - -  
12:00 PM 64.4 °F 32.0 °F 30% 29.89 in 6.2 mi WNW 6.9 mph - N/A   Partly Cloudy
12:30 PM 64.4 °F 41.0 °F 42% 29.89 in 6.2 mi SSW 8.1 mph - N/A   Partly Cloudy
1:00 PM 65 °F 43 °F 33% 29.89 in 31 mi SSW 11.5 mph - -   Scattered Clouds
1:00 PM 64.4 °F 42.8 °F 45% 29.89 in 6.2 mi SSW 9.2 mph - N/A   Partly Cloudy
1:30 PM 64.4 °F 44.6 °F 49% 29.86 in 6.2 mi SSW 9.2 mph - N/A   Partly Cloudy
2:00 PM 65 °F 45 °F 37% 29.87 in - SSW 11.5 mph - -  
2:00 PM 64.4 °F 42.8 °F 45% 29.86 in 6.2 mi SSW 10.4 mph - N/A   Partly Cloudy
2:30 PM 64.4 °F 44.6 °F 49% 29.86 in 6.2 mi SSW 11.5 mph - N/A   Partly Cloudy
3:00 PM 64 °F 46 °F 40% 29.86 in - SSW 11.5 mph - -  
3:00 PM 64.4 °F 44.6 °F 49% 29.86 in 6.2 mi SSW 10.4 mph - N/A   Partly Cloudy
3:30 PM 62.6 °F 46.4 °F 55% 29.86 in 6.2 mi SSW 12.7 mph - N/A   Partly Cloudy
4:00 PM 62.6 °F 44.6 °F 52% 29.86 in 6.2 mi SSW 11.5 mph - N/A   Partly Cloudy
4:30 PM 60.8 °F 46.4 °F 59% 29.86 in 6.2 mi SSW 10.4 mph - N/A   Partly Cloudy
5:00 PM 61 °F 47 °F 50% 29.86 in - SSW 10.4 mph - -  
5:00 PM 60.8 °F 46.4 °F 59% 29.86 in 6.2 mi SSW 9.2 mph - N/A   Partly Cloudy
5:30 PM 60.8 °F 46.4 °F 59% 29.83 in 6.2 mi SSW 10.4 mph - N/A   Partly Cloudy
6:00 PM 60 °F 47 °F 52% 29.86 in - SW 9.2 mph - -  
6:00 PM 59.0 °F 46.4 °F 63% 29.86 in 6.2 mi SW 9.2 mph - N/A   Partly Cloudy
6:30 PM 59.0 °F 46.4 °F 63% 29.86 in 6.2 mi SW 8.1 mph - N/A   Partly Cloudy
7:00 PM 59 °F 46 °F 51% 29.87 in 31 mi WSW 6.9 mph - -   Scattered Clouds
7:00 PM 59.0 °F 46.4 °F 63% 29.86 in 6.2 mi WSW 6.9 mph - N/A   Partly Cloudy
7:30 PM 59.0 °F 46.4 °F 63% 29.86 in 6.2 mi Variable 2.3 mph - N/A   Partly Cloudy
8:00 PM 58 °F 47 °F 57% 29.88 in - NNW 2.3 mph - -  
8:00 PM 57.2 °F 46.4 °F 67% 29.86 in 6.2 mi Variable 1.2 mph - N/A   Partly Cloudy
8:30 PM 57.2 °F 46.4 °F 67% 29.86 in 6.2 mi Variable 2.3 mph - N/A   Partly Cloudy
9:00 PM 56 °F 46 °F 60% 29.89 in - North 4.6 mph - -  
9:00 PM 55.4 °F 46.4 °F 72% 29.89 in 6.2 mi North 3.5 mph - N/A   Partly Cloudy
9:30 PM 55.4 °F 46.4 °F 72% 29.89 in 6.2 mi North 4.6 mph - N/A   Partly Cloudy
10:00 PM 53.6 °F 46.4 °F 77% 29.89 in 6.2 mi NNW 5.8 mph - N/A   Partly Cloudy
10:30 PM 53.6 °F 44.6 °F 72% 29.89 in 6.2 mi NNW 8.1 mph - N/A   Partly Cloudy
11:00 PM 56 °F 30 °F 25% 29.90 in - NNW 11.5 mph - -  
11:00 PM 55.4 °F 28.4 °F 36% 29.89 in 6.2 mi NNW 10.4 mph - N/A   Partly Cloudy